TimeEST,TemperatureF,Dew PointF,Humidity,Sea Level PressureIn,VisibilityMPH,Wind Direction,Wind SpeedMPH,Gust SpeedMPH,PrecipitationIn,Events,Conditions,WindDirDegrees,DateUTC
12:53 AM,59.0,55.0,87,30.09,10.0,North,3.5,-,N/A,,Mostly Cloudy,360,2013-02-21 05:53:00
1:53 AM,57.9,54.0,87,30.08,10.0,North,4.6,-,N/A,,Scattered Clouds,350,2013-02-21 06:53:00
2:31 AM,59.0,55.4,88,30.07,10.0,North,5.8,-,N/A,,Mostly Cloudy,350,2013-02-21 07:31:00
2:53 AM,60.1,55.0,83,30.07,10.0,North,4.6,-,N/A,,Mostly Cloudy,360,2013-02-21 07:53:00
3:53 AM,61.0,55.9,83,30.06,10.0,NNE,6.9,-,N/A,,Mostly Cloudy,20,2013-02-21 08:53:00
4:53 AM,61.0,54.0,78,30.07,10.0,NNE,4.6,-,N/A,,Mostly Cloudy,30,2013-02-21 09:53:00
5:53 AM,62.1,53.1,72,30.08,10.0,North,4.6,-,N/A,,Overcast,10,2013-02-21 10:53:00
6:53 AM,61.0,52.0,72,30.08,10.0,Calm,Calm,-,N/A,,Mostly Cloudy,0,2013-02-21 11:53:00
7:53 AM,64.0,53.1,67,30.11,10.0,NNE,4.6,-,N/A,,Mostly Cloudy,30,2013-02-21 12:53:00
8:53 AM,69.1,55.9,63,30.13,10.0,NE,8.1,-,N/A,,Mostly Cloudy,50,2013-02-21 13:53:00
9:53 AM,73.0,61.0,66,30.12,10.0,ENE,9.2,-,N/A,,Scattered Clouds,70,2013-02-21 14:53:00
10:53 AM,75.9,63.0,64,30.12,10.0,ESE,8.1,-,N/A,,Scattered Clouds,110,2013-02-21 15:53:00
11:53 AM,77.0,61.0,58,30.10,10.0,SSW,3.5,-,N/A,,Scattered Clouds,210,2013-02-21 16:53:00
12:53 PM,80.1,59.0,48,30.07,10.0,Variable,6.9,-,N/A,,Scattered Clouds,0,2013-02-21 17:53:00
1:53 PM,81.0,60.1,49,30.05,10.0,South,9.2,-,N/A,,Mostly Cloudy,170,2013-02-21 18:53:00
2:53 PM,80.1,61.0,52,30.03,10.0,SSW,6.9,-,N/A,,Mostly Cloudy,210,2013-02-21 19:53:00
3:53 PM,80.1,61.0,52,30.03,10.0,South,4.6,-,N/A,,Mostly Cloudy,180,2013-02-21 20:53:00
4:53 PM,81.0,57.9,45,30.01,10.0,SSE,5.8,-,N/A,,Mostly Cloudy,160,2013-02-21 21:53:00
5:53 PM,78.1,57.9,50,30.02,10.0,SE,3.5,-,N/A,,Mostly Cloudy,140,2013-02-21 22:53:00
6:53 PM,72.0,62.1,71,30.03,10.0,ESE,6.9,-,N/A,,Mostly Cloudy,120,2013-02-21 23:53:00
7:53 PM,72.0,62.1,71,30.04,10.0,ESE,8.1,-,N/A,,Mostly Cloudy,120,2013-02-22 00:53:00
8:53 PM,68.0,62.1,81,30.05,10.0,ESE,5.8,-,N/A,,Scattered Clouds,110,2013-02-22 01:53:00
9:53 PM,69.1,64.9,87,30.05,10.0,SSE,9.2,-,N/A,,Scattered Clouds,150,2013-02-22 02:53:00
10:53 PM,68.0,66.0,93,30.06,10.0,SSE,9.2,-,N/A,,Scattered Clouds,150,2013-02-22 03:53:00
11:53 PM,68.0,66.0,93,30.06,10.0,SSE,5.8,-,N/A,,Mostly Cloudy,160,2013-02-22 04:53:00